Regional Weather Roundup
Issued by NWS

Home | Current Version | Previous Version | Text Only | Print | Product List | Glossary Off
Versions: 1 2 3 4 5 6 7 8 9 10 11 12 13 14 15 16 17 18 19 20 21 22 23 24 25 26 27 28 29 30 31 32 33 34 35 36 37 38 39 40 41 42 43 44 45 46 47 48 49 50

000
ASUS43 KOAX 251710
RWRNE

WEATHER ROUNDUP FOR NEBRASKA
NATIONAL WEATHER SERVICE OMAHA NE
1200 PM CDT SAT APR 25 2015

NOTES: SATELLITE DATA IS BEING USED TO AUGMENT CLOUD COVER ABOVE
       12000 FEET.
       "FAIR" INDICATES FEW OR NO CLOUDS BELOW 12,000 FEET WITH NO
       SIGNIFICANT WEATHER AND/OR OBSTRUCTIONS TO VISIBILITY.

  * THESE STATIONS DO NOT REPORT WEATHER SUCH AS RAIN...SNOW OR FOG.

NEZ001>004-019>022-054>056-251800-
NEBRASKA PANHANDLE

CITY           SKY/WX    TMP DP  RH WIND       PRES   REMARKS
SCOTTSBLUFF    SUNNY     62  43  49 SE6       29.72S
ALLIANCE       SUNNY     62  47  57 N3        29.71S
CHADRON        SUNNY     61  47  59 NE7       29.70F
KIMBALL        SUNNY     61  40  46 N8        29.72S
SIDNEY         SUNNY     62  43  49 CALM      29.73S
$$

NEZ057>060-069>072-079>082-251800-
SOUTHWEST NEBRASKA

CITY           SKY/WX    TMP DP  RH WIND       PRES   REMARKS
IMPERIAL       MOSUNNY   63  46  54 N10       29.71R
LEXINGTON      MOSUNNY   63  52  68 N14       29.68R
MCCOOK         SUNNY     65  50  58 N7        29.69R
OGALLALA       SUNNY     63  49  59 E6        29.72R
$$

NEZ005>010-023>029-035>040-094-251800-
NORTH CENTRAL NEBRASKA

CITY           SKY/WX    TMP DP  RH WIND       PRES   REMARKS
VALENTINE      CLOUDY    58  49  72 E9        29.72S
AINSWORTH      CLOUDY    56  50  80 E12       29.72R
BROKEN BOW     CLOUDY    58  50  75 NE13      29.69R
O`NEILL        FOG       47  47  99 NE12      29.73R VSB 1/2
ORD            CLOUDY    52  48  86 NE15      29.69R
THEDFORD       CLOUDY    58  50  76 NE7       29.72S
$$

NEZ041-046>049-061>064-073>077-083>087-251800-
SOUTH CENTRAL NEBRASKA

CITY           SKY/WX    TMP DP  RH WIND       PRES   REMARKS
GRAND ISLAND   CLOUDY    48  47  96 N14       29.69R FOG
AURORA         CLOUDY    49  49 100 N13       29.67S FOG
HASTINGS       CLOUDY    51  48  89 N14       29.67R
HEBRON         CLOUDY    54  51  89 N12       29.64R
HOLDREGE       CLOUDY    59  52  76 NE17      29.67R
KEARNEY *      CLOUDY    54  50  87 N13       29.68R
YORK           CLOUDY    48  48 100 N16G23    29.66R
$$

NEZ011>018-030>034-042>045-251800-
NORTHEAST NEBRASKA

CITY           SKY/WX    TMP DP  RH WIND       PRES   REMARKS
NORFOLK        CLOUDY    48  45  89 NE10      29.70R FOG
ALBION         CLOUDY    47  45  93 N10       29.70R FOG
BLAIR          CLOUDY    47  44  89 NE14      29.66R
COLUMBUS *     CLOUDY    48  41  76 NE10G16   29.70R
FREMONT        CLOUDY    49  46  90 N10       29.68R
TEKAMAH        CLOUDY    49  45  86 NE14      29.69R
WAYNE          CLOUDY    49  46  88 NE12      29.72R FOG
$$

NEZ050>053-065>068-078-088>093-251800-
SOUTHEAST NEBRASKA

CITY           SKY/WX    TMP DP  RH WIND       PRES   REMARKS
LINCOLN        CLOUDY    50  46  86 N16       29.66R
OMAHA EPPLEY   CLOUDY    49  46  90 NE12      29.66R
BEATRICE       CLOUDY    55  53  95 N15G21    29.61R FOG
FALLS CITY     CLOUDY    55  52  89 N14       29.55R
NEBRASKA CITY  CLOUDY    51  50  99 N10       29.60R FOG
PLATTSMOUTH    CLOUDY    48  46  91 N10G16    29.63R
$$

NEZ044-045-051>053-067-251800-
OMAHA AREA

CITY           SKY/WX    TMP DP  RH WIND       PRES   REMARKS
OMAHA EPPLEY   CLOUDY    49  46  90 NE12      29.66R
BLAIR          CLOUDY    47  44  89 NE14      29.66R
FREMONT        CLOUDY    49  46  90 N10       29.68R
MILLARD        CLOUDY    49  46  88 N8        29.65R
OFFUTT AFB     CLOUDY    49  46  89 NE9G17    29.63R
PLATTSMOUTH    CLOUDY    48  46  91 N10G16    29.63R
WAHOO          LGT RAIN  48  46  90 N14       29.67R
$$



USA.gov is the U.S. government's official web portal to all federal, state and local government web resources and services.